This is the latest recevied weather packets stored in our database for station/object OZ7MKS. If no packets are shown the sender has not sent any weather packets the latest 10 day(s).
| Time | Temp. | Humidity | Pressure | Rain* | Wind** | Luminosity | Snow |
|---|---|---|---|---|---|---|---|
| 1777747204 | 15.56° C | 84% | 1011.8 hPa | 0 mm | - | - | - |
| 1777745404 | 16.11° C | 84% | 1012.2 hPa | 0 mm | - | - | - |
| 1777744504 | 16.67° C | 83% | 1012.2 hPa | 0 mm | - | - | - |
| 1777743904 | 16.67° C | 83% | 1012.2 hPa | 0 mm | - | - | - |
| 1777741804 | 16.67° C | 82% | 1012.3 hPa | 0 mm | - | - | - |
| 1777739103 | 17.78° C | 78% | 1012.7 hPa | 0 mm | - | - | - |
| 1777738504 | 18.33° C | 78% | 1012.6 hPa | 0 mm | - | - | - |
| 1777735204 | 21.67° C | 70% | 1012.7 hPa | 0 mm | - | - | - |
| 1777734304 | 22.22° C | 69% | 1012.8 hPa | 0 mm | - | - | - |
| 1777733704 | 21.67° C | 66% | 1012.8 hPa | 0 mm | - | - | - |
| 1777732804 | 22.22° C | 62% | 1012.9 hPa | 0 mm | - | - | - |
| 1777731904 | 22.78° C | 59% | 1013 hPa | 0 mm | - | - | - |
| 1777729204 | 23.89° C | 44% | 1013 hPa | 0 mm | - | - | - |
| 1777727104 | 24.44° C | 44% | 1013.2 hPa | 0 mm | - | - | - |
| 1777726204 | 24.44° C | 44% | 1013.3 hPa | 0 mm | - | - | - |
| 1777725603 | 24.44° C | 45% | 1013.4 hPa | 0 mm | - | - | - |
| 1777725304 | 24.44° C | 45% | 1013.5 hPa | 0 mm | - | - | - |
| 1777724404 | 24.44° C | 43% | 1013.7 hPa | 0 mm | - | - | - |
| 1777721703 | 23.89° C | 45% | 1014 hPa | 0 mm | - | - | - |
| 1777718404 | 23.33° C | 49% | 1014.4 hPa | 0 mm | - | - | - |
| 1777715704 | 22.22° C | 52% | 1014.8 hPa | 0 mm | - | - | - |
| 1777714804 | 22.22° C | 54% | 1015 hPa | 0 mm | - | - | - |
| 1777714504 | 21.67° C | 54% | 1015.1 hPa | 0 mm | - | - | - |
| 1777704604 | 16.11° C | 76% | 1016.1 hPa | 0 mm | - | - | - |
| 1777699504 | 12.22° C | 80% | 1016.6 hPa | 0 mm | - | - | - |
* Rain latest hour (hover to see other rain measurements)
** Current wind speed in m/s (hover to see current wind gust speed)